Location: Charleville
(26.4021°S, 146.2454°E)
Time: 03:53:24
(UTC+10:00)

Hubble Space Telescope - Pass Details

Date: 01 December 2021
Orbit: 534 x 538 km, 28.5° (Epoch: 26 January)

Event Time Altitude Azimuth Distance (km) Brightness Sun altitude
Rises 19:40:58 0° 265° (W) 2,688 5.6 -10.1°
Reaches altitude 10° 19:43:28 10° 277° (W) 1,793 4.3 -10.6°
Maximum altitude 19:47:01 27° 336° (NNW) 1,043 2.2 -11.3°
Enters shadow 19:49:49 14° 28° (NNE) 1,554 2.6 -11.8°
